Showing default

COSMOS 2214, 22185

Orbit data source: Space-Track

COSMOS 2214, 22185 is a payload satellite owned by VKS (CIS) in LEO that was launched on Tue, 20 Oct 1992 UTC via a TSIKLON-3 launch vehicle from the Plesetsk Missile And Space Complex (PKMTR). Payloads include a variety of satellites, spacecraft, and rockets equipped with specific instruments for various scientific and technological missions. These include communications satellites like Starlink; space stations such as the ISS; scientific satellites like the Hubble; Earth observation satellites from companies like Planet Labs, Umbra, and HawkEye 360; GPS; miniature CubeSats for education and research; and military/defense satellites.

Loading next visibility...
COSMOS 2214 details
Identifier
22185, 1992-068D
Orbit
LEO
Last TLE update19 hours ago
Origin
Flag of CISVKS (CIS)
ManufacturerNPO PM
MissionDefense Communications
Bus & MotorSTRELA-3, Unknown motor
Mass225 kg wet, 225 kg dry
Launch date (UTC)
1992-10-20 (32 years ago)
Launch vehicle
TSIKLON-3
Launch site
Plesetsk Missile And Space Complex (PKMTR)
Object type
Payload
Rocket body
Debris
Shape & HBRCyl, 1.6 m
Radar Cross Section1.257 m², Large (>1 m²)

Expand to show TLE details & history

TLE from 19 hours ago
0 COSMOS 2214
1 22185U 92068D   24325.56154663  .00000031  00000-0  11646-3 0  9990
2 22185  82.5937 358.6586 0008813  18.1485 150.6452 12.61581447477316
Epoch: 2024-11-20T13:28Z
Definitive object data (Epoch: 2024-11-20T13:28:37.628Z)
Latitude11.01719°
Longitude-84.99708°
Altitude1,424.394 km
Speed7.147 km/s
True Right ascension11h 48m 51s
True Declination10° 57' 30"
Sunlit
Object was in daylight at TLE epoch
Visualization TLE readout
Latitude-6.44211°
Longitude-83.22385°
Altitude1,426.986 km
Speed7.144 km/s
Apparent Right ascension14h 00m 07s
Apparent Declination-27° 32' 56"
Sunlit
Object is in daylight
Visualization observer readout
Local Sidereal Time05:39:04
Azimuth92.079° ESE
Elevation-43.581°
Doppler factor1
Orbital elements
Apogee altitude1,420.612 km
Perigee altitude1,406.878 km
Semi-major axis7,791.882 km
Eccentricity0.0008813
Inclination82.5937°
RAAN358.6586°
Arg. of periapsis18.1485°
True anomaly150.69466°
Mean anomaly150.6452°
Eccentric anomaly150.66993°
Mean motion3.15558 °/min
BSTAR0.00011646
Orbital period114.08 mins
Loading maneuver chart data...
Loading historical data...
Loading historical data...
Loading historical data...
Loading historical data...
Loading historical data...
Loading historical data...
Loading historical data...

COSMOS 2214 Visibility forecast

Observer location: undefined°, undefined

Span
Click to sort rows by Start time (UTC) header in descending order
Start Az.
Max El. time (UTC)
Max El. Az.
Max El.
End time (UTC)
End Az.
6 mins2024-11-21 12:04:11.103Z38.136° NE2024-11-21 12:07:11.103Z60.164° ENE12.509°2024-11-21 12:10:11.103Z81.981° E
14 mins2024-11-21 13:57:11.103Z359.112° N2024-11-21 14:04:11.103Z98.972° ESE43.111°2024-11-21 14:11:11.103Z163.07° S
10 mins2024-11-21 15:53:11.103Z319.58° NNW2024-11-21 15:58:11.103Z277.423° WNW21.237°2024-11-21 16:03:11.103Z236.712° WSW
14 mins2024-11-22 02:45:11.103Z173.433° S2024-11-22 02:52:11.103Z71.804° E43.281°2024-11-22 02:59:11.103Z12.552° NNE
10 mins2024-11-22 04:43:11.103Z254.354° W2024-11-22 04:47:11.103Z289.117° WNW21.526°2024-11-22 04:53:11.103Z339.419° N
|